TimeCST,TemperatureF,Dew PointF,Humidity,Sea Level PressureIn,VisibilityMPH,Wind Direction,Wind SpeedMPH,Gust SpeedMPH,PrecipitationIn,Events,Conditions,WindDirDegrees,DateUTC
12:58 AM,55.2,39.6,56,30.34,10.0,East,9.2,-,N/A,,Clear,80,2013-11-05 06:58:00
1:58 AM,54.7,39.0,56,30.34,10.0,ENE,6.9,-,N/A,,Overcast,60,2013-11-05 07:58:00
2:58 AM,54.0,37.4,54,30.35,10.0,ENE,6.9,-,N/A,,Partly Cloudy,60,2013-11-05 08:58:00
3:58 AM,53.4,37.2,54,30.35,10.0,ENE,6.9,-,N/A,,Clear,70,2013-11-05 09:58:00
4:58 AM,53.2,36.7,53,30.34,10.0,ENE,11.5,-,N/A,,Overcast,60,2013-11-05 10:58:00
5:58 AM,52.2,37.2,57,30.35,10.0,ENE,6.9,-,N/A,,Clear,70,2013-11-05 11:58:00
6:58 AM,53.1,38.3,57,30.36,10.0,ENE,11.5,-,N/A,,Partly Cloudy,60,2013-11-05 12:58:00
7:58 AM,57.0,39.7,52,30.37,10.0,ENE,12.7,-,N/A,,Mostly Cloudy,70,2013-11-05 13:58:00
8:58 AM,58.3,39.2,49,30.38,10.0,ENE,15.0,-,N/A,,Overcast,70,2013-11-05 14:58:00
9:58 AM,61.9,39.7,44,30.37,10.0,ENE,13.8,-,N/A,,Mostly Cloudy,70,2013-11-05 15:58:00
10:58 AM,65.8,41.9,42,30.35,10.0,East,8.1,-,N/A,,Clear,80,2013-11-05 16:58:00
11:58 AM,68.0,42.4,39,30.32,10.0,ENE,10.4,-,N/A,,Clear,60,2013-11-05 17:58:00
12:58 PM,69.8,44.4,40,30.30,10.0,NE,10.4,-,N/A,,Clear,50,2013-11-05 18:58:00
1:58 PM,72.3,46.2,39,30.28,10.0,East,12.7,-,N/A,,Partly Cloudy,80,2013-11-05 19:58:00
2:58 PM,72.1,45.3,38,30.26,10.0,East,10.4,-,N/A,,Clear,80,2013-11-05 20:58:00
3:58 PM,70.2,46.4,43,30.26,10.0,East,10.4,-,N/A,,Clear,90,2013-11-05 21:58:00
4:58 PM,66.9,45.1,45,30.25,10.0,East,6.9,-,N/A,,Clear,90,2013-11-05 22:58:00
5:58 PM,64.0,44.6,49,30.26,10.0,ESE,5.8,-,N/A,,Clear,110,2013-11-05 23:58:00
6:58 PM,60.1,46.2,60,30.27,10.0,NE,3.5,-,N/A,,Partly Cloudy,40,2013-11-06 00:58:00
7:58 PM,59.4,47.7,65,30.28,10.0,NE,4.6,-,N/A,,Clear,40,2013-11-06 01:58:00
8:58 PM,58.8,45.9,62,30.29,10.0,NE,4.6,-,N/A,,Clear,40,2013-11-06 02:58:00
9:58 PM,57.0,45.5,65,30.28,10.0,NE,4.6,-,N/A,,Clear,40,2013-11-06 03:58:00
10:58 PM,55.6,45.7,69,30.27,10.0,NNE,3.5,-,N/A,,Clear,30,2013-11-06 04:58:00
11:58 PM,55.9,45.7,68,30.25,10.0,ENE,5.8,-,N/A,,Clear,70,2013-11-06 05:58:00